EW8655 Weather Reports


Display with metric or nautical units.
time (UTC)temp
F
wind
direction
speed
MPH
gust
MPH
rain 1hr
in
rain 24hr
in
rain mn
in
humidity
%
barometer
mb
20260510234007 55 279 12.0 18.0 0.00 0.00 0.00 44 1016.1
20260510233508 55 283 14.0 18.0 0.00 0.00 0.00 44 1016.1
20260510232507 55 272 12.0 16.0 0.00 0.00 0.00 44 1016.1
20260510232008 55 278 11.0 18.0 0.00 0.00 0.00 44 1016.1
20260510231508 55 283 12.0 18.0 0.00 0.00 0.00 44 1016.1
20260510230507 55 281 12.0 16.0 0.00 0.00 0.00 44 1016.1
20260510230007 55 292 10.0 18.0 0.00 0.00 0.00 44 1016.1
20260510225507 55 287 13.0 18.0 0.00 0.00 0.00 44 1016.1
20260510225008 55 304 11.0 18.0 0.00 0.00 0.00 44 1015.3
20260510224507 56 290 9.0 18.0 0.00 0.00 0.00 43 1015.6
20260510224007 57 264 12.0 18.0 0.00 0.00 0.00 43 1015.8
20260510223508 57 292 12.0 18.0 0.00 0.00 0.00 42 1016.1
20260510223007 58 332 9.0 22.0 0.00 0.00 0.00 43 1016.1
20260510222508 57 301 9.0 22.0 0.00 0.00 0.00 43 1016.1
20260510222008 57 320 6.0 14.0 0.00 0.00 0.00 43 1016.1
20260510221507 56 340 9.0 14.0 0.00 0.00 0.00 44 1016.1
20260510221007 56 317 7.0 18.0 0.00 0.00 0.00 44 1016.1
20260510220008 56 315 7.0 14.0 0.00 0.00 0.00 44 1016.1
20260510215508 56 303 7.0 14.0 0.00 0.00 0.00 44 1016.1
20260510215008 56 314 7.0 14.0 0.00 0.00 0.00 43 1015.8
20260510214508 57 311 9.0 18.0 0.00 0.00 0.00 43 1015.1
20260510214008 58 304 7.0 18.0 0.00 0.00 0.00 43 1015.1
20260510213508 57 296 7.0 16.0 0.00 0.00 0.00 43 1015.1
20260510213007 58 310 9.0 16.0 0.00 0.00 0.00 44 1015.1
20260510212507 58 316 5.0 14.0 0.00 0.00 0.00 44 1015.1
20260510212008 58 309 6.0 9.0 0.00 0.00 0.00 44 1015.1
20260510211007 58 282 9.0 18.0 0.00 0.00 0.00 44 1015.1
20260510204507 58 302 6.0 16.0 0.00 0.00 0.00 44 1014.9
20260510204008 58 322 6.0 16.0 0.00 0.00 0.00 45 1015.1
20260510203508 58 314 7.0 20.0 0.00 0.00 0.00 45 1014.6
20260510203008 58 251 7.0 20.0 0.00 0.00 0.00 45 1015.1
20260510202508 58 284 9.0 14.0 0.00 0.00 0.00 45 1015.1
20260510202007 57 295 7.0 12.0 0.00 0.00 0.00 45 1014.6
20260510201507 57 311 5.0 20.0 0.00 0.00 0.00 45 1015.1
20260510201007 57 301 9.0 20.0 0.00 0.00 0.00 45 1014.9
20260510200508 57 267 9.0 18.0 0.00 0.00 0.00 45 1014.4
20260510200007 57 298 9.0 18.0 0.00 0.00 0.00 45 1014.6
20260510194507 56 0 7.0 14.0 0.00 0.00 0.00 46 1015.1
20260510194007 56 301 5.0 14.0 0.00 0.00 0.00 46 1015.1
20260510193508 56 265 5.0 14.0 0.00 0.00 0.00 46 1015.1
20260510193007 56 84 5.0 14.0 0.00 0.00 0.00 47 1015.1
20260510192507 55 322 5.0 16.0 0.00 0.00 0.00 48 1015.1
20260510191507 55 280 14.0 16.0 0.00 0.00 0.00 46 1015.1
20260510191007 55 303 13.0 18.0 0.00 0.00 0.00 46 1015.1
20260510190007 55 292 16.0 18.0 0.00 0.00 0.00 47 1015.1
20260510185507 55 282 10.0 18.0 0.00 0.00 0.00 47 1015.0
20260510185007 55 294 9.0 16.0 0.00 0.00 0.00 47 1015.1
20260510184506 55 290 12.0 18.0 0.00 0.00 0.00 47 1015.1
20260510184007 55 273 12.0 18.0 0.00 0.00 0.00 46 1014.2
20260510183508 55 289 11.0 18.0 0.00 0.00 0.00 47 1014.1
20260510183008 55 315 11.0 18.0 0.00 0.00 0.00 47 1014.6
20260510182507 56 300 6.0 16.0 0.00 0.00 0.00 48 1014.1
20260510182007 55 338 10.0 16.0 0.00 0.00 0.00 48 1015.1
20260510181507 55 270 6.0 14.0 0.00 0.00 0.00 48 1014.1
20260510181007 55 10 6.0 14.0 0.00 0.00 0.00 48 1014.1
20260510180508 55 290 9.0 14.0 0.00 0.00 0.00 48 1014.1
20260510180007 55 321 10.0 14.0 0.00 0.00 0.00 49 1014.1
20260510175506 55 287 5.0 14.0 0.00 0.00 0.00 49 1014.1
20260510175007 55 308 8.0 16.0 0.00 0.00 0.00 49 1014.1
20260510174007 55 298 9.0 16.0 0.00 0.00 0.00 49 1014.1
20260510173508 55 324 7.0 14.0 0.00 0.00 0.00 50 1014.1
20260510173007 55 303 7.0 16.0 0.00 0.00 0.00 51 1014.1
20260510172507 54 297 10.0 16.0 0.00 0.00 0.00 51 1014.1
20260510172007 54 358 8.0 18.0 0.00 0.00 0.00 51 1014.1
20260510171506 54 334 12.0 18.0 0.00 0.00 0.00 51 1014.1
20260510171007 54 291 10.0 18.0 0.00 0.00 0.00 52 1014.1
20260510170507 54 344 9.0 16.0 0.00 0.00 0.00 53 1014.1
20260510170006 54 303 11.0 18.0 0.00 0.00 0.00 53 1014.1
20260510165506 53 301 12.0 18.0 0.00 0.00 0.00 53 1014.1
20260510165007 53 311 10.0 18.0 0.00 0.00 0.00 53 1014.1
20260510164507 54 264 5.0 16.0 0.00 0.00 0.00 54 1014.1
20260510164007 53 291 9.0 18.0 0.00 0.00 0.00 54 1014.1
20260510163507 53 301 12.0 18.0 0.00 0.00 0.00 53 1014.1
20260510163007 53 317 9.0 18.0 0.00 0.00 0.00 54 1014.1
20260510162507 53 304 9.0 22.0 0.00 0.00 0.00 54 1013.6
20260510162007 53 293 10.0 22.0 0.00 0.00 0.00 54 1013.6
20260510161506 53 292 9.0 18.0 0.00 0.00 0.00 55 1014.1
20260510161007 53 308 7.0 20.0 0.00 0.00 0.00 55 1014.1
20260510160507 53 322 12.0 20.0 0.00 0.00 0.00 55 1013.6
20260510160007 53 301 9.0 16.0 0.00 0.00 0.00 55 1013.6
20260510155506 53 284 7.0 16.0 0.00 0.00 0.00 55 1013.6
20260510155007 53 325 7.0 16.0 0.00 0.00 0.00 55 1013.1
20260510154007 53 276 7.0 16.0 0.00 0.00 0.00 55 1013.1
20260510153507 54 281 7.0 12.0 0.00 0.00 0.00 55 1013.6
20260510153007 54 300 5.0 12.0 0.00 0.00 0.00 55 1013.1
20260510152506 53 331 5.0 12.0 0.00 0.00 0.00 55 1013.1
20260510152007 53 311 5.0 12.0 0.00 0.00 0.00 55 1013.1
20260510151506 54 338 5.0 16.0 0.00 0.00 0.00 55 1013.1
20260510151007 53 333 8.0 16.0 0.00 0.00 0.00 56 1013.1
20260510150507 53 288 10.0 16.0 0.00 0.00 0.00 56 1013.1
20260510150006 53 326 10.0 16.0 0.00 0.00 0.00 56 1013.1
20260510145507 52 297 10.0 18.0 0.00 0.00 0.00 56 1013.1
20260510145007 52 300 14.0 18.0 0.00 0.00 0.00 57 1013.1
20260510144007 52 306 13.0 16.0 0.00 0.00 0.00 58 1013.1
20260510143506 52 300 7.0 18.0 0.00 0.00 0.00 59 1013.1
20260510142007 52 266 14.0 18.0 0.00 0.00 0.00 60 1013.1
20260510141506 52 281 14.0 18.0 0.00 0.00 0.00 60 1013.1
20260510141006 51 274 16.0 20.0 0.00 0.00 0.00 60 1013.1
20260510140508 51 271 16.0 20.0 0.00 0.00 0.00 60 1013.1
20260510140007 52 280 16.0 20.0 0.00 0.00 0.00 60 1013.0
20260510135506 52 282 14.0 18.0 0.00 0.00 0.00 61 1012.7
20260510135007 52 280 12.0 18.0 0.00 0.00 0.00 62 1012.1
20260510134507 52 270 12.0 18.0 0.00 0.00 0.00 63 1012.1
20260510134007 52 284 12.0 18.0 0.00 0.00 0.00 63 1012.1
20260510133506 51 280 14.0 18.0 0.00 0.00 0.00 63 1012.1
20260510133006 51 283 14.0 16.0 0.00 0.00 0.00 63 1012.1
20260510132506 52 277 12.0 18.0 0.00 0.00 0.00 63 1012.1
20260510132006 51 279 14.0 18.0 0.00 0.00 0.00 63 1012.1
20260510131506 51 273 13.0 18.0 0.00 0.00 0.00 64 1012.1
20260510131007 52 285 14.0 18.0 0.00 0.00 0.00 64 1012.1
20260510130507 52 287 12.0 16.0 0.00 0.00 0.00 64 1012.1
20260510130006 51 316 12.0 16.0 0.00 0.00 0.00 65 1012.1
20260510125507 51 293 12.0 16.0 0.00 0.00 0.00 66 1012.1
20260510125007 50 275 13.0 16.0 0.00 0.00 0.00 67 1012.1
20260510124506 51 279 12.0 16.0 0.00 0.00 0.00 67 1012.1
20260510123508 51 265 9.0 14.0 0.00 0.00 0.00 69 1012.1
20260510123006 50 282 9.0 14.0 0.00 0.00 0.00 69 1012.1
20260510122506 50 282 12.0 16.0 0.00 0.00 0.00 69 1012.1
20260510122007 50 265 12.0 16.0 0.00 0.00 0.00 69 1012.1
20260510121506 50 260 12.0 16.0 0.00 0.00 0.00 70 1012.1
20260510121006 50 290 11.0 16.0 0.00 0.00 0.00 71 1012.1
20260510120507 49 277 9.0 14.0 0.00 0.00 0.00 72 1012.1
20260510115506 49 269 12.0 14.0 0.00 0.00 0.00 73 1012.1
20260510115006 48 283 9.0 14.0 0.00 0.00 0.00 73 1012.1
20260510114507 48 283 10.0 14.0 0.00 0.00 0.00 73 1012.1
20260510114006 48 286 12.0 14.0 0.00 0.00 0.00 73 1012.1
20260510113506 48 268 9.0 14.0 0.00 0.00 0.00 73 1012.1
20260510112507 48 261 9.0 14.0 0.00 0.00 0.00 73 1012.1
20260510112006 48 279 9.0 14.0 0.00 0.00 0.00 73 1011.1
20260510111508 48 275 9.0 14.0 0.00 0.00 0.00 73 1010.9
20260510111007 48 276 9.0 14.0 0.00 0.00 0.00 74 1011.1
20260510110507 49 283 9.0 12.0 0.00 0.00 0.00 74 1010.1
20260510110007 49 285 9.0 12.0 0.00 0.00 0.00 75 1010.1
20260510105507 49 291 9.0 12.0 0.00 0.00 0.00 75 1010.1
20260510105006 49 281 9.0 9.0 0.00 0.00 0.00 75 1010.1
20260510104507 49 295 7.0 9.0 0.00 0.00 0.00 76 1010.1
20260510104008 49 299 5.0 9.0 0.00 0.00 0.00 76 1010.1
20260510102009 49 295 7.0 9.0 0.00 0.00 0.00 79 1010.1
20260510101507 49 266 7.0 7.0 0.00 0.00 0.00 79 1010.1
20260510101009 49 278 7.0 9.0 0.00 0.00 0.00 79 1010.1
20260510100508 49 274 7.0 12.0 0.00 0.00 0.00 79 1010.1
20260510100007 49 279 9.0 16.0 0.00 0.00 0.00 79 1009.1
20260510095508 49 283 9.0 16.0 0.00 0.00 0.00 81 1009.1
20260510095008 49 253 5.0 7.0 0.00 0.00 0.00 81 1009.1
20260510094508 48 252 5.0 5.0 0.00 0.00 0.00 81 1009.1
20260510094008 48 230 5.0 5.0 0.00 0.00 0.00 81 1009.1
20260510093508 49 229 5.0 7.0 0.00 0.00 0.00 80 1009.1
20260510093009 49 237 7.0 7.0 0.00 0.00 0.00 80 1009.1
20260510092009 49 234 7.0 9.0 0.00 0.00 0.00 80 1009.1
20260510091507 49 229 7.0 9.0 0.00 0.00 0.00 80 1009.1
20260510090508 49 238 7.0 7.0 0.00 0.00 0.00 78 1009.1
20260510085508 49 241 7.0 9.0 0.00 0.00 0.00 78 1008.1
20260510085008 49 251 7.0 9.0 0.00 0.00 0.00 77 1008.1
20260510084507 50 271 9.0 12.0 0.00 0.00 0.00 77 1008.4
20260510084008 50 275 7.0 12.0 0.00 0.00 0.00 76 1008.8
20260510083009 51 290 7.0 9.0 0.00 0.00 0.00 77 1008.1
20260510081008 52 280 9.0 14.0 0.00 0.00 0.00 80 1008.1
20260510080507 52 279 9.0 14.0 0.00 0.00 0.00 81 1008.1
20260510075008 53 275 7.0 9.0 0.00 0.00 0.00 85 1008.1
20260510074507 53 274 7.0 9.0 0.00 0.00 0.00 86 1007.6
20260510074009 52 283 5.0 9.0 0.00 0.00 0.00 87 1007.1
20260510073509 52 284 7.0 9.0 0.00 0.00 0.00 87 1007.1
20260510073008 52 287 7.0 7.0 0.00 0.00 0.00 87 1007.1
20260510072008 52 262 7.0 7.0 0.00 0.00 0.00 87 1007.5
20260510071507 52 264 5.0 7.0 0.00 0.00 0.00 87 1007.1
20260510071008 52 286 5.0 9.0 0.00 0.00 0.00 87 1007.1
20260510070507 53 271 7.0 9.0 0.00 0.00 0.00 87 1007.1
20260510070007 53 275 5.0 9.0 0.00 0.00 0.00 87 1007.1
20260510065507 52 285 5.0 5.0 0.00 0.00 0.00 87 1007.0
20260510064506 53 293 5.0 7.0 0.00 0.00 0.00 87 1006.1
20260510064008 53 296 5.0 9.0 0.00 0.00 0.00 87 1007.1
20260510063507 53 291 5.0 9.0 0.00 0.00 0.00 88 1006.1
20260510063008 53 275 7.0 9.0 0.00 0.00 0.00 89 1007.1
20260510062507 53 281 7.0 9.0 0.00 0.00 0.00 89 1006.1
20260510062008 53 278 7.0 9.0 0.00 0.00 0.00 90 1006.1
20260510061008 53 292 7.0 9.0 0.00 0.00 0.00 90 1006.1
20260510060507 53 277 9.0 14.0 0.00 0.00 0.00 90 1006.1
20260510060007 53 277 9.0 14.0 0.00 0.00 0.00 90 1006.1
20260510054507 53 257 7.0 7.0 0.00 0.00 0.00 90 1006.1
20260510054008 52 238 7.0 9.0 0.00 0.00 0.00 90 1006.1
20260510053508 52 253 7.0 9.0 0.00 0.00 0.00 89 1006.1
20260510053008 53 255 8.0 9.0 0.00 0.00 0.00 89 1006.1
20260510052507 53 250 7.0 9.0 0.00 0.00 0.00 89 1006.1
20260510052008 53 250 7.0 7.0 0.00 0.00 0.00 89 1006.1
20260510051507 53 260 7.0 7.0 0.00 0.00 0.00 89 1006.1
20260510051008 53 242 7.0 9.0 0.00 0.00 0.00 88 1006.1
20260510050507 53 241 7.0 9.0 0.00 0.00 0.00 88 1006.1
20260510050006 53 222 7.0 9.0 0.00 0.00 0.00 88 1006.1
20260510045507 53 220 9.0 9.0 0.00 0.00 0.00 88 1006.1
20260510045008 53 214 9.0 9.0 0.00 0.00 0.00 89 1006.1
20260510044008 53 199 7.0 9.0 0.00 0.00 0.00 89 1006.1
20260510043507 53 199 7.0 9.0 0.00 0.00 0.00 88 1006.1
20260510043007 53 211 7.0 9.0 0.00 0.00 0.00 88 1006.1
20260510042507 54 217 7.0 9.0 0.00 0.00 0.00 88 1005.1
20260510042007 54 215 7.0 7.0 0.00 0.00 0.00 88 1005.6
20260510041507 54 215 6.0 7.0 0.00 0.00 0.00 88 1006.1
20260510041007 54 216 7.0 7.0 0.00 0.00 0.00 88 1005.6
20260510040007 54 210 7.0 9.0 0.00 0.00 0.00 88 1005.1
20260510035507 54 225 7.0 9.0 0.00 0.00 0.00 88 1005.1
20260510035008 54 230 7.0 9.0 0.00 0.00 0.00 88 1005.1
20260510034008 54 236 9.0 9.0 0.00 0.00 0.00 88 1005.1
20260510033507 54 239 9.0 9.0 0.00 0.00 0.00 88 1005.1
20260510033008 54 239 9.0 9.0 0.00 0.00 0.00 88 1005.1
20260510032507 54 229 9.0 9.0 0.00 0.00 0.00 88 1005.1
20260510032007 54 234 9.0 12.0 0.00 0.00 0.00 88 1005.1
20260510031507 54 233 9.0 12.0 0.00 0.00 0.00 87 1005.1
20260510030507 54 225 9.0 12.0 0.00 0.00 0.00 88 1004.7
20260510030006 54 231 9.0 12.0 0.00 0.00 0.00 88 1004.7
20260510025507 54 224 9.0 12.0 0.00 0.00 0.00 88 1004.1
20260510025008 54 221 11.0 12.0 0.00 0.00 0.00 89 1004.1
20260510024507 54 221 9.0 12.0 0.00 0.00 0.00 89 1004.1
20260510024008 54 215 9.0 12.0 0.00 0.00 0.00 89 1004.1
20260510023507 54 236 9.0 14.0 0.00 0.00 0.00 89 1004.1
20260510023008 54 230 11.0 14.0 0.00 0.00 0.00 90 1004.1
20260510022507 54 226 9.0 14.0 0.00 0.00 0.00 91 1004.1
20260510022008 54 225 10.0 14.0 0.00 0.00 0.00 91 1004.1
20260510021507 54 217 10.0 14.0 0.00 0.00 0.00 92 1004.1
20260510021007 54 214 9.0 14.0 0.00 0.00 0.00 92 1004.1
20260510020507 54 216 10.0 14.0 0.00 0.00 0.00 93 1004.1
20260510020007 54 223 10.0 16.0 0.00 0.00 0.00 93 1004.1
20260510015507 54 227 12.0 16.0 0.00 0.00 0.00 94 1004.1
20260510015008 53 230 12.0 16.0 0.00 0.00 0.00 94 1004.1
20260510014506 53 225 12.0 16.0 0.00 0.00 0.00 94 1004.1
20260510014008 53 220 14.0 16.0 0.00 0.00 0.00 94 1004.1
20260510013507 53 226 14.0 16.0 0.00 0.00 0.00 94 1004.1
20260510013008 53 224 14.0 16.0 0.00 0.00 0.00 94 1004.1
20260510012507 53 217 14.0 16.0 0.00 0.00 0.00 93 1003.1
20260510012008 53 230 14.0 18.0 0.00 0.00 0.00 93 1003.1
20260510011506 53 227 13.0 18.0 0.00 0.00 0.00 93 1003.2
20260510011008 53 217 12.0 14.0 0.00 0.00 0.00 93 1003.6
20260510010507 52 230 9.0 12.0 0.00 0.00 0.00 92 1003.1
20260510005506 52 282 7.0 16.0 0.00 0.00 0.00 91 1003.9
20260510005008 52 272 12.0 18.0 0.00 0.00 0.00 91 1003.1
20260510004506 52 206 14.0 18.0 0.00 0.00 0.00 90 1003.1
20260510003008 52 252 12.0 14.0 0.00 0.00 0.00 87 1004.1
20260510002507 52 250 12.0 14.0 0.00 0.00 0.00 85 1004.1
20260510002008 52 282 12.0 16.0 0.00 0.00 0.00 83 1003.9
20260510001507 52 283 14.0 20.0 0.00 0.00 0.00 81 1003.6
20260510000507 52 299 21.0 38.0 0.00 0.00 0.00 76 1003.6
20260510000007 55 286 23.0 38.0 0.00 0.00 0.00 72 1003.1
20260509235506 58 315 5.0 24.0 0.00 0.00 0.00 69 1002.1
20260509234506 58 173 0.0 2.0 0.00 0.00 0.00 70 1001.1